Location: Buckland
(65.9785°N, 161.1281°W)
Time: 21:55:50
(UTC+00:00)

SPROUT - Pass Details

Date: 19 January 2021
Orbit: 597 x 610 km, 97.9° (Epoch: 07 March)

Event Time Altitude Azimuth Distance (km) Brightness Sun altitude
Exits shadow 07:16:36 10° 356° (N) 1,950 ? -32.5°
Drops below altitude 10° 07:16:44 10° 354° (N) 1,977 ? -32.5°
Sets 07:19:51 0° 330° (NNW) 2,886 ? -32.8°
